Location: Cahas Mountain Overlook
(37.0833°N, 80.1000°W)
Time: 11:32:49
(UTC-04:00)

Vanguard 1 Rocket - Pass Details

Date: 11 February 2026
Orbit: 653 x 4214 km, 34.3° (Epoch: 15 March)

Event Time Altitude Azimuth Distance (km) Brightness Sun altitude
Rises 22:19:29 0° 287° (WNW) 7,935 12.8 -51.9°
Reaches altitude 10° 22:25:29 10° 279° (W) 7,186 12.3 -53.0°
Maximum altitude 22:46:16 34° 226° (SW) 5,518 11.2 -56.4°
Enters shadow 22:50:44 32° 210° (SSW) 5,470 11.1 -57.1°
